Вернуться в каталог

ELECTRON KICK STAGE R/B

АктивенPO
NORAD 67559·ROCKET BODY·🇺🇸 United States

Запущен Jan 22, 2026 с Rocket Lab Launch Complex 1

Loading…

Ближайшие Пролёты (ближайшие 24 часа)

TLE

СвежийSource: Space-Track

Эпоха: Sep 13, 2026, 22:23 UTC

1 67559U 26015D   26256.93299865  .00043594 -34374-6  55976-3 0  9996
2 67559  89.0341 255.1221 0416452 210.9999 146.6052 14.97016271 34726

Отслеживайте ELECTRON KICK STAGE R/B в реальном времени с AllMySat

Download on the App Store